Regional Weather Roundup
Issued by NWS Newport/Morehead, NC

Current Version | Previous Version | Graphics & Text | Print | Product List | Glossary On
Versions: 1 2 3 4 5 6 7 8 9 10 11 12 13 14 15 16 17 18 19 20 21 22 23 24 25 26 27 28 29 30 31 32 33 34 35 36 37 38 39 40 41 42 43 44 45 46 47 48 49 50
000 ASUS42 KMHX 280510 RWRMHX WEATHER ROUNDUP FOR EASTERN NORTH CAROLINA NATIONAL WEATHER SERVICE NEWPORT/MOREHEAD CITY NC 1200 AM EST FRI NOV 28 2014 NOTE: "FAIR" INDICATES FEW OR NO CLOUDS BELOW 12,000 FEET WITH NO SIGNIFICANT WEATHER AND/OR OBSTRUCTIONS TO VISIBILITY NCZ015>017-031-032-045>047-102-103-280600- NORTH COAST CITY SKY/WX TMP DP RH WIND PRES REMARKS EDENTON CLOUDY 41 38 87 NW9 30.20R ELIZABETH CITY CLOUDY 43 37 79 NW7 30.19R KITTY HAWK CLEAR 41 35 79 NW8 30.15S MANTEO CLEAR 41 33 72 NW10G20 30.17S $$ NCZ045>047-081-094-103-104-280600- CENTRAL COAST CITY SKY/WX TMP DP RH WIND PRES REMARKS FRISCO CLEAR 43 33 68 N8G21 30.16R SWANQUARTER N/A 41 N/A N/A NW6 30.15S $$ NCZ095-097-098-100-101-280600- SOUTHERN COAST CITY SKY/WX TMP DP RH WIND PRES REMARKS BEAUFORT CLEAR 42 34 73 N18 30.20S CEDAR ISLAND N/A 45 N/A N/A NW18 30.21S JACKSONVILLE CLEAR 39 32 76 NW10 30.22S PINEY ISLAND CLEAR 45 37 73 NW10 30.19S WILMINGTON CLEAR 38 32 79 NW7 30.24R $$ NCZ011>013-027>030-043-044-078>080-089-090>093-098-280600- COASTAL PLAIN CITY SKY/WX TMP DP RH WIND PRES REMARKS AHOSKIE MOCLDY 37 30 76 CALM 30.22S CLINTON CLEAR 36 33 90 CALM 30.26S ELIZABETHTOWN CLEAR 38 30 72 CALM 30.25S GOLDSBORO CLEAR 38 30 72 NW8 30.23R GREENVILLE CLEAR 37 28 70 NW5 30.24S HAVELOCK CLEAR 42 29 59 NW10G23 30.22S KENANSVILLE CLEAR 37 31 82 N5 30.25S KINSTON CLEAR 37 28 69 NW7 30.24S NEW BERN CLEAR 41 30 65 N10 30.22S RICHLANDS CLEAR 37 28 70 NW3 30.23S ROCKY MOUNT CLEAR 35 25 66 W5 30.24S WASHINGTON CLEAR 38 28 66 NW7 30.22S WHITEVILLE CLEAR 37 32 79 CALM 30.26R $$ AMZ130-135-150-152-154-156-158-170-250-252-270-ANZ085-086-088-633-658-670-280600- MARINE OBSERVATIONS STATION/POSITION TIME TEMP WIND PRES WAVE SWELL AIR SEA DIR/SP/G HT/PER HT/PER (UTC) (F) (DEG/KT/KT) (MB) (FT/S) (FT/S) CHESAPEAKE LIGHT 0400 44 330/ 22/ 26 1021.5 64 E VA BEACH 0500 48 65 340/ 23/ 27 1018.6 6/ 6 2/ 9 DUCK 0500 42 53 320/ 15/ 18 1020.3 2 E DUCK 0500 54 N/A 5/ 5 2/14 10 NE DUCK 0500 57 N/A 6/ 5 2/11 OREGON INLET 0500 43 55 320/ 12/ 16 1021.1 13E OREGON INLT 0500 60 N/A 7/ 6 2/14 HATTERAS CG 0500 45 57 340/ 16/ 23 1021.7 DIAMOND BUOY 0500 48 320/ 21/ 25 1020.3 6/ 5 2/14 17 S OCRACOKE NOT AVBL CAPE LOOKOUT 0400 45 330/ 21/ 25 1022.0 BEAUFORT LAB 0500 43 56 350/ 12/ 16 1021.6 30 SE NEW RIVER 0500 49 66 340/ 25/ 31 1022.6 6/ 5 2/ 8 5 SE WRIGHTSVLE 0400 43 59 340/ 14/ 17 1023.3 225 S CAPE HAT 0356 59 73 320/ 23/ 29 1018.4 13/ 9 2/14 41 SE CHARLESTON 0500 54 72 320/ 17/ 21 1023.5 5/ 5 2/ 9 $$

USA.gov is the U.S. government's official web portal to all federal, state and local government web resources and services.